TimeCST,TemperatureF,Dew PointF,Humidity,Sea Level PressureIn,VisibilityMPH,Wind Direction,Wind SpeedMPH,Gust SpeedMPH,PrecipitationIn,Events,Conditions,WindDirDegrees,DateUTC
12:15 AM,43.3,32.2,65,29.75,10.0,West,21.9,34.5,N/A,,Clear,260,2013-02-11 06:15:00
12:35 AM,42.1,31.3,66,29.76,10.0,WSW,25.3,42.6,N/A,,Clear,250,2013-02-11 06:35:00
12:55 AM,41.0,31.1,68,29.77,10.0,WSW,32.2,36.8,N/A,,Clear,250,2013-02-11 06:55:00
1:15 AM,41.0,29.7,64,29.78,10.0,WSW,27.6,42.6,N/A,,Clear,250,2013-02-11 07:15:00
1:35 AM,40.6,29.8,65,29.78,10.0,WSW,24.2,36.8,N/A,,Scattered Clouds,240,2013-02-11 07:35:00
1:55 AM,40.1,30.0,67,29.80,10.0,WSW,29.9,38.0,N/A,,Scattered Clouds,250,2013-02-11 07:55:00
2:15 AM,38.5,27.5,65,29.82,10.0,West,24.2,34.5,0.01,,Scattered Clouds,260,2013-02-11 08:15:00
2:35 AM,37.4,26.8,66,29.82,10.0,West,20.7,31.1,0.01,,Clear,260,2013-02-11 08:35:00
2:55 AM,37.4,26.2,64,29.82,10.0,West,21.9,31.1,0.01,,Clear,260,2013-02-11 08:55:00
3:15 AM,36.5,26.8,68,29.82,10.0,West,24.2,29.9,N/A,,Scattered Clouds,260,2013-02-11 09:15:00
3:35 AM,36.5,27.3,69,29.83,10.0,WSW,24.2,29.9,N/A,,Scattered Clouds,250,2013-02-11 09:35:00
3:55 AM,36.5,27.1,69,29.83,10.0,WSW,23.0,33.4,N/A,,Clear,250,2013-02-11 09:55:00
4:15 AM,36.0,25.7,66,29.84,10.0,West,26.5,38.0,N/A,,Clear,260,2013-02-11 10:15:00
4:35 AM,35.6,25.3,66,29.85,10.0,West,24.2,33.4,N/A,,Clear,270,2013-02-11 10:35:00
4:55 AM,35.1,25.7,69,29.86,10.0,West,25.3,29.9,N/A,,Clear,260,2013-02-11 10:55:00
5:15 AM,34.9,26.4,71,29.86,10.0,West,18.4,31.1,N/A,,Scattered Clouds,260,2013-02-11 11:15:00
5:35 AM,35.1,26.6,71,29.86,10.0,West,20.7,28.8,N/A,,Overcast,260,2013-02-11 11:35:00
5:55 AM,35.6,27.0,71,29.87,10.0,West,21.9,26.5,N/A,,Mostly Cloudy,260,2013-02-11 11:55:00
6:15 AM,36.0,27.3,71,29.88,10.0,West,17.3,28.8,N/A,,Mostly Cloudy,260,2013-02-11 12:15:00
6:35 AM,35.6,27.5,72,29.90,10.0,West,18.4,-,N/A,,Scattered Clouds,260,2013-02-11 12:35:00
6:55 AM,36.1,27.5,71,29.90,10.0,West,19.6,25.3,N/A,,Scattered Clouds,270,2013-02-11 12:55:00
7:15 AM,36.0,27.5,71,29.91,10.0,West,19.6,25.3,N/A,,Scattered Clouds,270,2013-02-11 13:15:00
7:35 AM,36.5,26.8,68,29.93,10.0,West,20.7,29.9,N/A,,Clear,270,2013-02-11 13:35:00
7:55 AM,36.1,26.8,69,29.95,10.0,West,17.3,26.5,N/A,,Clear,270,2013-02-11 13:55:00
8:15 AM,36.7,27.7,70,29.96,10.0,West,15.0,-,N/A,,Scattered Clouds,270,2013-02-11 14:15:00
8:35 AM,37.0,25.9,64,29.97,10.0,West,31.1,38.0,N/A,,Clear,270,2013-02-11 14:35:00
8:55 AM,37.0,25.3,63,29.97,10.0,West,20.7,28.8,N/A,,Clear,270,2013-02-11 14:55:00
9:15 AM,37.4,27.3,67,29.97,10.0,West,20.7,28.8,N/A,,Scattered Clouds,280,2013-02-11 15:15:00
9:35 AM,37.8,27.1,66,29.98,10.0,West,19.6,25.3,N/A,,Scattered Clouds,280,2013-02-11 15:35:00
9:55 AM,37.8,27.7,67,29.99,10.0,West,16.1,21.9,N/A,,Scattered Clouds,260,2013-02-11 15:55:00
10:15 AM,38.7,29.7,70,30.00,10.0,West,21.9,28.8,N/A,,Scattered Clouds,260,2013-02-11 16:15:00
10:35 AM,39.2,29.1,67,30.01,10.0,WSW,23.0,29.9,N/A,,Scattered Clouds,250,2013-02-11 16:35:00
10:55 AM,39.9,29.7,67,30.01,10.0,West,25.3,31.1,N/A,,Clear,260,2013-02-11 16:55:00
11:15 AM,40.1,28.8,64,30.01,10.0,West,24.2,29.9,N/A,,Clear,270,2013-02-11 17:15:00
11:35 AM,40.8,29.3,64,30.01,10.0,West,21.9,31.1,N/A,,Clear,270,2013-02-11 17:35:00
11:55 AM,41.2,29.5,63,30.01,10.0,West,21.9,28.8,N/A,,Clear,270,2013-02-11 17:55:00
12:15 PM,41.9,29.8,62,30.01,10.0,West,23.0,28.8,N/A,,Clear,260,2013-02-11 18:15:00
12:35 PM,42.8,30.9,63,30.00,10.0,West,20.7,25.3,N/A,,Clear,260,2013-02-11 18:35:00
12:55 PM,43.0,30.7,62,30.00,10.0,West,19.6,28.8,N/A,,Clear,270,2013-02-11 18:55:00
1:15 PM,43.2,29.8,59,30.01,10.0,West,19.6,29.9,N/A,,Clear,270,2013-02-11 19:15:00
1:35 PM,43.5,29.8,59,30.01,10.0,West,17.3,26.5,N/A,,Clear,270,2013-02-11 19:35:00
1:55 PM,43.9,30.7,60,30.02,10.0,WSW,20.7,-,N/A,,Clear,250,2013-02-11 19:55:00
2:15 PM,44.2,30.7,59,30.01,10.0,West,19.6,25.3,N/A,,Clear,280,2013-02-11 20:15:00
2:35 PM,44.6,30.2,57,30.02,10.0,West,20.7,-,N/A,,Clear,280,2013-02-11 20:35:00
2:55 PM,44.6,29.8,56,30.02,10.0,West,19.6,27.6,N/A,,Clear,270,2013-02-11 20:55:00
3:15 PM,45.0,31.3,59,30.03,10.0,West,24.2,28.8,N/A,,Clear,270,2013-02-11 21:15:00
3:35 PM,45.0,29.5,55,30.03,10.0,West,19.6,26.5,N/A,,Clear,260,2013-02-11 21:35:00
3:55 PM,45.0,30.4,57,30.03,10.0,West,17.3,23.0,N/A,,Clear,270,2013-02-11 21:55:00
4:55 PM,43.9,29.3,57,30.05,10.0,West,16.1,20.7,N/A,,Clear,260,2013-02-11 22:55:00
5:15 PM,43.0,29.1,58,30.04,10.0,West,13.8,-,N/A,,Clear,270,2013-02-11 23:15:00
5:35 PM,42.1,28.6,59,30.05,10.0,West,13.8,-,N/A,,Clear,280,2013-02-11 23:35:00
5:55 PM,41.0,29.3,63,30.05,10.0,West,10.4,16.1,N/A,,Clear,270,2013-02-11 23:55:00
6:15 PM,40.1,29.8,67,30.06,10.0,West,8.1,-,N/A,,Clear,270,2013-02-12 00:15:00
6:35 PM,39.9,29.3,66,30.07,10.0,West,11.5,-,N/A,,Clear,270,2013-02-12 00:35:00
6:55 PM,39.4,28.9,66,30.08,10.0,West,10.4,-,N/A,,Clear,280,2013-02-12 00:55:00
7:15 PM,37.2,29.5,74,30.08,10.0,West,5.8,-,N/A,,Clear,270,2013-02-12 01:15:00
7:35 PM,36.3,29.3,76,30.08,10.0,West,6.9,-,N/A,,Clear,280,2013-02-12 01:35:00
7:55 PM,36.0,29.3,77,30.09,10.0,West,6.9,-,N/A,,Clear,280,2013-02-12 01:55:00
8:15 PM,35.2,29.1,78,30.09,10.0,West,5.8,-,N/A,,Clear,270,2013-02-12 02:15:00
8:35 PM,34.9,28.8,78,30.10,10.0,West,5.8,-,N/A,,Clear,260,2013-02-12 02:35:00
8:55 PM,35.4,28.6,76,30.10,10.0,West,6.9,-,N/A,,Clear,270,2013-02-12 02:55:00
9:15 PM,34.7,28.9,79,30.11,10.0,West,6.9,-,N/A,,Clear,260,2013-02-12 03:15:00
9:35 PM,34.2,28.8,81,30.11,10.0,West,6.9,-,N/A,,Clear,260,2013-02-12 03:35:00
9:55 PM,34.2,28.8,81,30.11,10.0,WSW,6.9,-,N/A,,Clear,250,2013-02-12 03:55:00
10:15 PM,34.3,28.6,79,30.12,10.0,West,6.9,-,N/A,,Clear,260,2013-02-12 04:15:00
10:35 PM,33.4,28.8,83,30.13,10.0,West,6.9,-,N/A,,Clear,280,2013-02-12 04:35:00
10:55 PM,34.3,28.0,78,30.13,10.0,NW,4.6,-,N/A,,Clear,310,2013-02-12 04:55:00
11:15 PM,32.2,28.2,85,30.14,10.0,NW,3.5,-,N/A,,Clear,310,2013-02-12 05:15:00
11:35 PM,32.0,28.4,87,30.15,10.0,WNW,4.6,-,N/A,,Clear,300,2013-02-12 05:35:00
11:55 PM,32.0,27.5,83,30.15,10.0,NW,5.8,-,N/A,,Clear,320,2013-02-12 05:55:00